Location: Liberec
(50.7830°N, 15.0500°E)
Time: 19:59:21
(UTC+02:00)

ISS - Pass Details

Date: 18 May 2021
Orbit: 417 x 422 km, 51.6° (Epoch: 16 June)

Event Time Altitude Azimuth Distance (km) Brightness Sun altitude
Rises 01:17:29 0° 283° (WNW) 2,370 0.2 -19.5°
Reaches altitude 10° 01:19:35 10° 282° (WNW) 1,506 -0.9 -19.5°
Enters shadow 01:22:48 77° 240° (WSW) 437 -3.9 -19.4°
